Temp
81 80 80 81 81 81 80 80 80 80 80 80 80 80 81 80 79 79 78 77 77 76 77 77 77 77 77 77 77 78 78 78 77 77 77 77 77 76 75 76 76 76 76 76 76 76 77 77 76 76 76 76 76 75 74 74 74 73 72 72 72 72 71
80 80 81 82 81 81 81 81 81 81 81 81 81 80 81 80 79 79 78 78 77 77 77 77 77 77 77 77 78 78 77 78 78 78 77 77 77 76 77 76 76 76 76 76 76 77 77 77 77 76 76 76 76 75 75 74 74 73 72 72 71 71 71
79 81 81 81 81 81 81 81 81 82 82 83 82 82 81 79 80 79 79 78 77 77 78 77 77 77 78 78 77 77 78 78 77 77 77 77 77 78 77 77 76 76 77 77 77 77 77 76 76 76 76 76 76 75 74 74 74 73 72 72 72 72 70
79 80 81 82 82 82 82 82 82 83 84 84 83 83 81 80 81 80 80 80 78 78 77 78 78 78 78 77 77 77 77 78 78 78 78 78 77 77 77 76 76 77 76 76 77 77 77 77 76 76 76 76 75 75 75 74 74 73 73 72 71 72 71
79 81 81 81 82 81 81 82 82 82 84 85 85 83 83 82 82 81 81 81 81 79 80 79 80 79 78 79 78 78 78 78 78 78 78 78 78 77 77 77 77 77 77 77 77 77 76 76 76 76 76 76 76 75 75 75 74 73 72 72 71 71 71
80 79 80 82 82 83 83 83 84 85 85 85 84 84 84 84 84 83 82 81 81 81 80 80 79 79 78 79 79 79 78 78 78 78 78 78 78 77 77 77 77 77 77 77 78 77 77 76 76 76 76 76 76 75 75 75 75 74 73 72 72 72 71
81 80 81 82 83 83 83 84 85 86 86 86 86 86 86 85 84 84 84 82 82 80 80 80 80 80 79 79 78 78 78 78 78 78 79 78 78 77 77 77 77 78 78 77 77 77 77 76 76 76 76 76 76 75 75 74 74 74 73 72 71 71 72
82 81 81 82 84 85 85 84 85 86 86 86 86 86 85 85 85 84 83 83 83 83 82 82 81 79 79 79 79 79 79 79 79 79 79 78 78 78 78 78 78 78 77 77 77 77 77 76 77 76 76 76 75 75 75 74 74 74 73 72 71 72 72
82 82 82 84 84 85 86 85 85 85 84 84 84 84 85 85 85 84 84 84 83 83 82 83 83 82 80 79 79 78 79 79 79 78 78 78 79 79 79 79 78 78 77 77 78 77 77 77 77 76 76 76 75 75 75 74 74 74 73 72 72 72 72
79 79 80 82 83 85 85 85 84 82 82 82 81 82 83 84 84 85 85 85 84 83 83 83 84 83 81 80 79 79 79 78 79 79 79 79 79 79 80 80 79 79 78 78 78 77 77 77 77 76 75 75 75 75 75 74 74 74 73 73 72 72 72
78 78 79 80 79 81 81 83 81 80 81 80 80 83 83 83 84 85 84 85 85 84 85 84 84 83 82 81 81 80 79 79 79 79 79 79 80 80 80 80 80 80 79 79 78 78 77 76 77 76 75 75 75 75 75 75 75 74 74 73 73 73 73
74 75 76 77 77 77 79 80 81 79 79 79 81 83 81 82 84 85 85 85 86 85 84 84 85 84 82 82 81 79 79 79 79 79 79 79 80 80 81 81 80 80 79 79 78 78 78 77 76 76 75 76 76 76 75 75 75 74 74 74 73 73 73
73 74 76 78 77 78 78 77 78 79 79 81 83 83 83 84 84 85 83 83 85 86 85 84 84 82 82 82 81 79 79 79 79 79 79 79 79 80 80 80 81 81 80 79 79 78 78 77 76 76 76 76 76 76 76 75 75 74 74 74 73 73 72
72 73 74 75 75 75 76 77 78 78 79 81 82 82 83 84 85 84 83 83 84 85 85 85 83 82 81 81 80 79 79 79 79 79 79 79 79 79 80 80 80 79 79 79 79 79 78 78 77 77 77 76 76 76 76 75 75 74 74 74 73 73 73
72 73 74 74 73 74 76 77 77 78 79 80 82 81 82 83 83 83 83 84 83 85 85 84 82 81 81 80 79 79 79 79 80 80 79 79 78 79 79 79 79 79 79 78 78 79 79 79 78 77 76 76 76 76 76 75 75 75 75 74 73 73 73
71 73 74 74 74 76 76 78 78 78 79 79 80 80 82 81 81 83 83 83 84 83 85 83 82 80 81 80 79 79 79 79 79 79 79 78 78 78 78 79 79 79 78 78 78 78 78 78 77 77 76 76 76 76 76 75 76 71 65 68 74 73 73
72 73 74 74 73 75 77 78 78 77 77 78 79 80 81 81 82 83 85 85 85 83 85 84 81 81 80 79 80 79 79 79 78 78 78 78 78 78 78 78 78 78 78 78 77 77 77 77 77 77 77 77 76 75 75 76 75 66 63 65 67 73 73
72 71 73 75 74 75 75 77 77 77 78 80 81 81 81 81 82 83 83 84 85 86 86 84 82 81 79 80 79 79 79 79 78 78 78 78 78 78 78 78 78 77 77 77 77 77 77 77 77 77 77 77 77 76 76 76 68 64 63 64 64 68 73
72 72 72 73 73 74 77 80 80 78 81 82 82 82 83 83 83 81 83 83 84 85 84 84 83 80 79 79 79 79 79 78 78 78 78 78 78 78 78 77 77 77 77 77 77 77 76 76 77 77 77 77 76 76 77 77 68 63 62 63 63 65 70
69 73 74 75 75 76 77 78 80 82 82 82 83 85 86 85 84 84 85 85 84 83 82 81 81 80 80 79 79 79 79 78 78 78 78 78 78 78 77 77 77 78 78 78 77 77 77 77 77 77 76 77 76 76 77 77 67 62 61 62 62 63 67
71 71 72 73 72 75 75 76 78 79 80 82 84 83 83 83 84 84 84 83 82 82 81 81 81 80 80 79 79 79 79 78 78 78 78 78 78 78 77 77 77 77 78 78 78 77 76 77 76 77 77 77 77 77 77 78 64 60 60 60 60 62 65
73 72 71 73 72 72 73 76 77 80 80 83 82 83 84 84 85 85 84 85 83 82 82 81 80 80 79 79 79 79 79 79 78 78 78 78 78 77 77 77 77 77 78 78 78 78 79 78 78 77 77 77 77 77 76 78 63 59 59 59 59 61 68
70 71 72 72 73 74 73 74 76 79 79 79 80 81 83 85 85 84 84 83 83 82 82 81 79 79 79 79 80 80 80 79 79 78 78 78 77 77 77 77 77 78 78 77 78 78 78 78 78 78 78 77 77 76 76 78 64 58 57 58 58 61 71
68 67 67 69 69 71 71 72 74 75 77 77 78 81 82 83 84 82 81 81 82 81 81 80 80 80 79 80 80 80 80 80 79 78 78 78 77 77 78 79 79 79 78 78 78 78 79 79 78 78 78 78 77 78 77 78 65 56 56 57 56 63 71
69 68 68 68 69 70 71 72 72 75 75 76 78 78 80 82 83 82 80 80 81 82 80 80 80 80 80 81 81 80 80 80 80 79 79 78 78 79 78 78 78 79 79 79 79 79 79 78 78 78 78 80 79 71 75 78 67 55 56 56 56 63 72
67 67 68 68 69 68 68 70 73 72 74 75 74 76 78 80 80 79 79 80 82 81 80 80 81 81 82 82 81 81 81 81 79 79 79 78 79 79 79 79 79 79 79 79 79 79 79 78 78 78 78 79 79 78 77 78 72 60 55 55 55 59 72
67 67 67 68 68 69 68 68 69 70 71 71 72 76 77 79 78 78 78 78 78 79 81 81 81 81 81 81 82 81 81 81 80 80 80 80 79 80 80 80 79 79 78 79 79 78 77 78 78 78 78 79 78 79 78 78 73 63 54 54 55 56 63
67 68 68 69 69 68 67 67 66 67 68 68 68 74 76 76 76 76 76 76 77 79 82 81 81 81 80 80 80 81 81 81 80 81 80 80 79 78 78 79 80 79 79 79 78 77 76 77 76 77 77 78 77 77 77 75 68 68 56 55 54 55 59
65 65 66 66 66 67 68 66 66 66 67 68 68 67 72 76 75 74 74 75 77 80 81 80 79 79 79 79 79 79 80 80 80 79 80 80 79 79 78 78 79 79 78 77 77 76 76 76 76 76 75 75 75 76 76 76 70 62 61 55 54 53 56
65 66 66 67 67 66 67 66 66 67 67 68 68 68 68 70 74 73 73 75 77 78 78 78 78 77 77 77 78 79 80 80 80 80 80 80 79 79 78 78 78 78 77 77 76 75 75 75 75 75 75 74 74 74 74 74 72 62 59 59 54 53 54
64 65 65 65 66 67 66 66 66 67 67 67 67 68 68 68 69 72 72 70 71 75 75 76 76 76 77 77 77 77 79 79 79 79 80 80 80 78 78 78 78 77 77 77 76 76 75 75 75 74 74 74 73 72 71 70 70 67 62 58 55 54 53
64 65 65 66 65 67 67 68 67 66 66 65 67 67 68 68 68 68 68 69 69 70 74 75 76 76 76 77 77 78 79 78 79 79 80 80 80 79 79 79 78 77 76 76 76 76 76 75 74 74 74 73 73 71 69 68 68 67 64 60 57 56 54
64 64 64 64 65 66 65 66 65 65 65 65 66 67 68 68 68 68 68 68 69 71 72 74 75 75 76 76 77 77 78 78 78 79 79 79 80 81 80 80 79 78 76 76 77 76 76 75 74 74 74 73 72 70 68 67 67 66 64 62 60 59 57
63 63 64 64 65 65 65 65 64 64 64 64 64 65 66 67 67 67 68 68 69 69 71 72 73 74 75 76 76 75 76 77 78 78 79 79 80 80 80 79 80 78 76 76 76 74 74 74 72 72 72 71 71 69 67 66 66 64 62 60 59 58 60
64 64 64 64 65 65 64 64 64 64 64 64 64 65 65 66 66 67 67 68 68 68 69 70 71 73 74 73 75 74 75 76 77 78 78 77 77 77 78 77 77 76 76 78 79 78 77 75 74 73 73 72 69 67 65 65 63 63 58 60 57 59 61
66 66 66 67 67 67 67 66 65 64 63 63 64 65 65 65 66 67 68 68 68 68 68 68 68 68 68 68 69 70 71 71 72 72 74 76 76 76 75 68 61 69 79 77 70 66 66 66 74 75 73 69 68 68 66 64 65 56 51 51 51 52 55
65 65 66 67 67 67 66 66 66 65 64 64 64 64 65 66 67 67 68 68 68 67 67 67 67 66 66 66 65 65 65 66 66 66 67 67 68 70 69 70 69 54 52 54 59 60 58 55 57 58 62 67 66 65 62 62 55 49 48 48 48 49 50
65 65 66 67 66 66 65 65 65 65 64 65 64 64 65 66 67 67 68 68 68 68 67 66 65 64 65 65 65 65 65 64 64 65 65 65 65 66 66 65 64 66 57 51 50 51 52 50 51 54 56 58 62 63 64 56 50 48 47 47 48 49 49
MSLP
1002.11 1002.87 1003.31 1003.39 1003.87 1004.03 1004.11 1004.23 1004.43 1004.83 1005.07 1005.39 1005.63 1005.83 1006.15 1006.55 1006.87 1007.23 1007.63 1007.91 1008.23 1008.63 1008.79 1009.03 1009.31 1009.59 1009.95 1010.19 1010.39 1010.63 1010.83 1011.15 1011.47 1011.87 1012.19 1012.47 1012.67 1013.07 1013.47 1013.67 1013.95 1014.11 1014.27 1014.59 1014.63 1014.75 1014.71 1014.99 1015.31 1015.51 1015.75 1015.99 1016.23 1016.43 1016.67 1016.83 1017.11 1017.31 1017.55 1017.75 1018.03 1018.31 1018.47
1002.47 1002.55 1002.55 1002.71 1003.11 1003.35 1003.43 1003.51 1003.83 1004.15 1004.43 1004.71 1004.99 1005.19 1005.51 1005.87 1006.23 1006.71 1006.91 1007.15 1007.47 1007.79 1008.11 1008.51 1008.87 1009.11 1009.31 1009.59 1009.87 1010.19 1010.55 1010.79 1011.03 1011.27 1011.67 1012.07 1012.31 1012.55 1012.71 1013.03 1013.35 1013.63 1013.83 1013.91 1014.11 1014.27 1014.51 1014.71 1014.95 1015.31 1015.59 1015.79 1016.03 1016.19 1016.47 1016.67 1016.87 1017.15 1017.43 1017.67 1017.95 1018.23 1018.35
1001.63 1001.71 1001.83 1002.03 1002.19 1002.31 1002.47 1002.91 1003.31 1003.43 1003.63 1003.91 1004.23 1004.71 1005.03 1005.11 1005.31 1005.71 1006.15 1006.71 1007.15 1007.35 1007.67 1008.07 1008.27 1008.51 1008.83 1009.11 1009.55 1009.79 1010.03 1010.35 1010.75 1011.07 1011.43 1011.67 1011.83 1011.99 1012.19 1012.47 1012.75 1013.03 1013.19 1013.43 1013.79 1014.07 1014.15 1014.51 1014.71 1014.95 1015.27 1015.63 1015.83 1016.07 1016.27 1016.51 1016.71 1016.91 1017.15 1017.43 1017.75 1017.99 1018.23
1000.91 1000.95 1000.79 1000.63 1000.67 1000.87 1001.35 1001.87 1002.19 1002.47 1002.67 1002.91 1003.23 1003.59 1003.95 1004.31 1004.47 1004.87 1005.43 1005.91 1006.47 1006.95 1007.47 1007.51 1007.83 1008.19 1008.47 1008.83 1009.19 1009.43 1009.71 1009.91 1010.11 1010.43 1010.75 1010.99 1011.35 1011.59 1012.03 1012.31 1012.47 1012.59 1013.03 1013.27 1013.35 1013.63 1013.91 1014.19 1014.55 1014.79 1015.03 1015.39 1015.63 1015.83 1016.11 1016.31 1016.51 1016.71 1016.95 1017.27 1017.59 1017.71 1017.91
1000.15 1000.07 1000.43 1000.91 1001.03 1001.23 1001.47 1001.63 1001.79 1001.99 1002.15 1002.15 1002.35 1002.59 1002.87 1003.19 1003.79 1004.43 1004.99 1005.31 1005.79 1006.35 1006.39 1006.63 1007.03 1007.43 1007.83 1008.15 1008.51 1008.75 1009.07 1009.39 1009.71 1009.99 1010.27 1010.47 1010.75 1011.19 1011.63 1011.91 1012.11 1012.35 1012.39 1012.55 1012.95 1013.43 1013.79 1014.07 1014.39 1014.59 1014.83 1015.07 1015.39 1015.67 1015.91 1016.11 1016.31 1016.47 1016.75 1017.03 1017.39 1017.55 1017.75
999.55 999.87 999.99 999.87 999.91 1000.15 1000.35 1000.43 1000.59 1000.91 1001.31 1001.71 1002.03 1002.39 1002.55 1002.95 1003.51 1004.19 1004.43 1004.95 1005.39 1005.63 1006.03 1006.55 1007.03 1007.27 1007.67 1007.71 1008.03 1008.35 1008.67 1008.99 1009.19 1009.47 1009.83 1010.11 1010.47 1010.87 1011.11 1011.31 1011.59 1011.87 1012.23 1012.39 1012.51 1012.87 1013.27 1013.71 1014.03 1014.31 1014.63 1014.79 1015.07 1015.39 1015.63 1015.91 1016.07 1016.19 1016.47 1016.79 1017.03 1017.23 1017.55
998.63 998.87 999.15 999.03 998.95 999.19 999.43 999.71 999.91 1000.15 1000.39 1000.67 1000.91 1001.23 1001.67 1002.31 1002.95 1003.23 1003.71 1004.39 1004.67 1005.27 1005.71 1006.11 1006.23 1006.59 1006.87 1007.27 1007.67 1008.07 1008.43 1008.67 1008.99 1009.35 1009.55 1009.87 1010.07 1010.43 1010.63 1010.87 1011.11 1011.39 1011.59 1011.91 1012.31 1012.47 1012.99 1013.43 1013.71 1013.95 1014.19 1014.47 1014.79 1015.07 1015.35 1015.63 1015.83 1015.95 1016.19 1016.51 1016.75 1016.95 1017.15
997.63 998.19 998.11 998.03 998.03 998.23 998.59 998.91 999.27 999.47 999.79 1000.19 1000.83 1001.31 1001.83 1002.07 1002.47 1002.95 1003.55 1003.71 1004.07 1004.55 1005.03 1005.31 1005.67 1005.99 1006.27 1006.75 1007.11 1007.55 1007.83 1008.19 1008.47 1008.79 1009.15 1009.51 1009.75 1010.07 1010.27 1010.51 1010.75 1010.99 1011.43 1011.87 1011.99 1012.15 1012.51 1012.87 1013.23 1013.55 1013.87 1014.19 1014.43 1014.63 1014.87 1015.15 1015.39 1015.55 1015.79 1016.15 1016.47 1016.75 1016.91
997.23 997.15 997.27 997.31 997.47 997.79 998.03 998.35 998.63 998.95 999.39 999.87 1000.31 1000.63 1000.99 1001.47 1001.91 1002.31 1002.63 1003.03 1003.51 1004.03 1004.19 1004.31 1004.63 1005.03 1005.67 1006.23 1006.67 1006.99 1007.31 1007.71 1008.11 1008.39 1008.79 1009.19 1009.39 1009.63 1009.83 1010.11 1010.43 1010.67 1011.15 1011.47 1011.75 1011.87 1012.07 1012.39 1012.75 1013.15 1013.47 1013.79 1014.03 1014.31 1014.55 1014.75 1014.95 1015.11 1015.39 1015.71 1016.03 1016.35 1016.63
997.31 997.35 997.15 997.07 997.27 997.55 997.67 997.91 998.39 999.03 999.55 999.83 1000.11 1000.43 1000.75 1000.95 1001.19 1001.55 1001.95 1002.39 1002.87 1003.35 1003.39 1003.79 1004.15 1004.71 1005.31 1005.75 1006.15 1006.51 1007.03 1007.35 1007.55 1007.95 1008.27 1008.67 1008.79 1009.11 1009.35 1009.67 1010.07 1010.35 1010.79 1011.07 1011.35 1011.75 1011.87 1011.99 1012.35 1012.71 1013.11 1013.43 1013.71 1013.95 1014.15 1014.35 1014.51 1014.71 1014.91 1015.23 1015.55 1015.87 1016.19
996.99 996.79 996.75 997.07 997.35 997.39 997.63 998.11 998.63 998.83 998.79 999.11 999.43 999.71 1000.03 1000.35 1000.71 1001.07 1001.47 1001.83 1002.27 1002.35 1002.59 1003.15 1003.59 1004.23 1004.71 1005.19 1005.79 1006.23 1006.59 1006.87 1007.15 1007.55 1007.79 1007.99 1008.27 1008.67 1009.03 1009.39 1009.71 1010.03 1010.43 1010.79 1011.15 1011.35 1011.67 1011.91 1011.99 1012.35 1012.71 1013.07 1013.27 1013.51 1013.71 1013.79 1013.99 1014.27 1014.55 1014.83 1015.03 1015.35 1015.63
996.95 996.91 996.91 996.83 997.03 997.39 997.59 997.43 997.51 997.99 998.39 998.67 998.95 999.19 999.55 999.83 1000.11 1000.43 1000.75 1001.03 1001.07 1001.55 1002.23 1002.63 1003.03 1003.55 1004.15 1004.71 1005.35 1005.71 1005.99 1006.27 1006.63 1006.83 1007.11 1007.51 1007.87 1008.23 1008.59 1008.95 1009.31 1009.63 1009.99 1010.31 1010.75 1011.07 1011.27 1011.51 1011.71 1011.83 1012.15 1012.35 1012.55 1012.79 1012.99 1013.19 1013.47 1013.75 1014.03 1014.31 1014.59 1014.91 1015.19
996.71 996.51 996.35 996.39 996.47 996.55 996.71 997.23 997.43 997.39 997.59 997.91 998.27 998.63 998.95 999.27 999.59 999.91 1000.27 1000.51 1000.67 1000.95 1001.51 1001.91 1002.47 1002.99 1003.59 1004.07 1004.59 1005.07 1005.35 1005.59 1005.75 1006.03 1006.51 1006.91 1007.27 1007.67 1008.07 1008.43 1008.67 1009.07 1009.51 1009.75 1010.19 1010.63 1010.95 1011.11 1011.31 1011.35 1011.55 1011.75 1011.95 1012.19 1012.43 1012.75 1012.99 1013.31 1013.59 1013.87 1014.15 1014.51 1014.87
997.35 996.99 996.59 996.39 996.59 996.83 996.83 996.59 996.59 996.91 997.15 997.47 997.83 998.07 998.39 998.55 998.79 999.19 999.59 999.99 1000.19 1000.51 1001.07 1001.51 1002.03 1002.59 1003.11 1003.63 1004.11 1004.43 1004.55 1004.67 1004.91 1005.47 1005.87 1006.27 1006.71 1007.03 1007.31 1007.71 1008.11 1008.43 1008.79 1009.23 1009.67 1009.95 1010.23 1010.55 1010.83 1010.91 1011.07 1011.15 1011.35 1011.55 1011.87 1012.27 1012.59 1012.83 1013.07 1013.35 1013.67 1014.07 1014.43
996.31 996.67 996.51 996.63 996.47 996.43 996.39 996.51 996.47 996.47 996.63 996.83 997.11 997.71 997.99 998.31 998.59 998.87 999.23 999.43 999.83 1000.15 1000.39 1000.63 1001.39 1001.95 1002.43 1002.91 1003.35 1003.43 1003.51 1003.95 1004.51 1004.91 1005.39 1005.83 1006.27 1006.63 1006.95 1007.23 1007.59 1007.99 1008.35 1008.67 1008.95 1009.23 1009.47 1009.79 1010.19 1010.55 1010.71 1010.71 1010.91 1011.19 1011.47 1011.79 1011.99 1012.15 1012.47 1012.91 1013.31 1013.55 1013.99
996.83 996.47 996.43 996.19 995.99 995.95 995.83 995.71 995.83 995.95 996.03 996.35 996.75 997.07 997.47 997.91 998.19 998.39 998.67 998.95 999.19 999.59 999.63 1000.27 1000.91 1001.39 1001.87 1002.31 1002.43 1002.59 1003.03 1003.59 1004.07 1004.51 1004.95 1005.51 1005.87 1006.15 1006.47 1006.87 1007.23 1007.59 1007.91 1008.15 1008.35 1008.63 1008.95 1009.35 1009.63 1009.87 1010.07 1010.35 1010.59 1010.83 1011.07 1011.23 1011.27 1011.43 1011.79 1012.11 1012.51 1013.03 1013.43
995.83 995.59 995.51 995.67 995.63 995.63 995.39 995.27 995.35 995.71 996.15 996.27 996.31 996.39 996.67 996.95 997.19 997.43 997.75 998.11 998.51 998.83 999.03 999.59 1000.27 1000.83 1001.23 1001.51 1001.51 1002.03 1002.71 1003.31 1003.71 1004.11 1004.63 1004.79 1005.27 1005.71 1006.15 1006.51 1006.79 1007.11 1007.35 1007.59 1007.87 1008.19 1008.51 1008.83 1009.15 1009.23 1009.39 1009.71 1010.07 1010.43 1010.55 1010.59 1010.59 1010.91 1011.35 1011.71 1012.03 1012.43 1012.87
995.35 995.03 994.31 994.43 994.91 995.03 995.19 995.11 995.15 995.39 995.51 995.59 995.67 995.79 995.99 996.31 996.55 997.07 997.43 997.55 997.87 998.03 998.47 999.19 999.71 1000.19 1000.43 1000.47 1001.03 1001.71 1002.19 1002.59 1003.11 1003.71 1003.99 1004.39 1004.79 1005.15 1005.55 1005.95 1006.31 1006.59 1006.79 1007.11 1007.51 1007.71 1007.99 1008.27 1008.27 1008.47 1008.83 1009.19 1009.51 1009.75 1009.87 1009.95 1009.99 1010.47 1010.87 1011.27 1011.63 1011.87 1012.23
994.07 994.03 993.99 993.43 994.19 994.59 994.47 994.35 994.31 994.43 994.51 994.63 994.87 995.15 995.11 995.19 995.83 996.35 996.35 996.83 996.83 997.43 998.35 998.75 999.07 999.51 999.95 1000.31 1000.91 1001.27 1001.63 1002.11 1002.67 1002.99 1003.43 1003.75 1004.11 1004.59 1005.07 1005.47 1005.75 1006.03 1006.39 1006.67 1006.71 1007.07 1007.39 1007.39 1007.71 1008.03 1008.23 1008.59 1008.95 1009.15 1009.27 1009.43 1009.51 1010.03 1010.39 1010.79 1011.15 1011.43 1011.71
994.79 994.39 993.91 993.79 993.95 994.03 993.79 993.67 993.63 993.59 993.51 993.59 993.67 993.79 993.83 994.35 994.83 994.87 995.03 995.55 996.43 997.39 997.67 998.15 998.59 999.03 999.47 999.95 1000.35 1000.67 1001.07 1001.55 1001.99 1002.39 1002.67 1003.07 1003.63 1004.07 1004.55 1004.91 1005.15 1005.27 1005.47 1005.83 1006.23 1006.59 1006.79 1006.99 1007.27 1007.43 1007.75 1007.95 1008.19 1008.51 1008.71 1008.87 1008.99 1009.51 1009.95 1010.35 1010.71 1011.03 1011.31
994.23 994.03 993.71 993.43 993.59 993.55 993.47 993.31 993.19 993.15 993.35 993.43 993.43 993.59 994.11 994.67 994.71 995.03 995.75 996.15 996.59 996.63 997.15 997.51 997.95 998.43 998.83 999.39 999.71 1000.23 1000.75 1001.19 1001.51 1001.87 1002.31 1002.75 1003.15 1003.59 1003.95 1004.19 1004.51 1004.83 1005.03 1005.31 1005.59 1005.91 1006.15 1006.39 1006.79 1006.87 1007.03 1007.27 1007.59 1008.03 1008.27 1008.15 1008.47 1009.03 1009.47 1009.87 1010.23 1010.59 1010.91
993.91 994.39 994.47 993.87 993.63 993.31 993.15 993.07 992.91 992.79 992.59 992.19 992.75 993.27 993.59 993.91 994.11 994.87 995.31 995.43 995.95 996.35 996.67 997.07 997.51 997.83 998.31 998.99 999.39 999.75 1000.03 1000.51 1001.03 1001.51 1001.99 1002.43 1002.79 1003.19 1003.47 1003.67 1003.87 1004.19 1004.39 1004.75 1004.95 1005.15 1005.47 1005.83 1006.07 1006.39 1006.63 1006.79 1007.15 1007.47 1007.71 1007.55 1007.99 1008.51 1008.99 1009.35 1009.79 1010.23 1010.63
994.79 994.39 994.07 993.63 993.47 993.07 992.91 992.79 992.83 992.59 992.55 992.87 992.99 993.23 993.43 993.59 994.11 994.59 995.07 995.55 995.71 995.99 996.35 996.83 997.27 997.51 997.83 998.19 998.55 998.95 999.39 999.83 1000.39 1000.99 1001.47 1001.83 1002.31 1002.63 1002.83 1003.11 1003.35 1003.67 1003.83 1004.31 1004.43 1004.83 1005.11 1005.23 1005.47 1005.63 1005.99 1006.31 1006.55 1006.87 1006.99 1007.15 1007.51 1007.95 1008.43 1008.83 1009.31 1009.95 1010.19
994.67 994.51 993.99 993.47 993.03 992.83 992.55 992.15 991.99 992.15 992.51 992.87 993.07 992.91 993.07 993.39 993.75 994.35 994.91 995.27 995.51 996.03 996.39 996.71 996.95 996.95 997.31 997.63 997.87 998.23 998.59 999.03 999.67 1000.39 1000.83 1001.23 1001.47 1001.63 1001.91 1002.19 1002.51 1002.87 1002.99 1003.59 1004.07 1004.43 1004.35 1004.59 1004.99 1005.11 1005.31 1005.67 1005.91 1005.95 1006.39 1006.55 1006.95 1007.39 1007.87 1008.35 1008.91 1009.15 1009.51
994.63 994.43 994.19 993.83 993.19 992.47 992.27 992.07 991.99 991.99 992.11 992.43 992.91 993.11 993.03 993.03 993.39 994.03 994.63 994.91 995.23 995.47 995.83 995.95 995.87 996.23 996.75 997.03 997.23 997.59 998.07 998.59 999.19 999.71 1000.15 1000.51 1000.67 1000.95 1001.35 1001.59 1001.79 1002.07 1002.67 1003.03 1003.27 1003.43 1003.67 1004.19 1004.51 1004.67 1004.87 1004.91 1005.07 1005.39 1005.87 1006.03 1006.51 1006.99 1007.39 1007.91 1008.35 1008.71 1008.87
994.47 994.35 994.15 993.79 993.47 993.15 992.59 992.27 992.07 992.31 992.55 992.71 992.87 992.75 993.07 993.35 993.71 994.07 994.39 994.63 994.75 995.23 995.47 995.39 995.35 995.47 995.71 996.11 996.75 997.31 997.83 998.19 998.71 999.03 999.43 999.71 1000.03 1000.47 1000.75 1001.11 1001.75 1002.15 1002.43 1002.63 1002.83 1003.19 1003.43 1003.71 1003.99 1004.31 1004.39 1004.43 1004.79 1005.11 1005.31 1005.55 1006.03 1006.59 1006.95 1007.39 1007.83 1008.15 1008.35
994.47 994.43 994.35 994.03 993.67 993.23 992.79 992.67 992.67 992.99 993.15 993.23 992.99 992.79 992.87 993.15 993.75 994.27 994.43 994.71 994.99 994.99 994.55 994.51 994.99 995.59 995.91 996.23 996.63 997.03 997.35 997.63 997.95 998.35 998.55 998.83 999.39 999.79 1000.27 1000.59 1000.95 1001.35 1001.87 1002.27 1002.63 1003.03 1003.31 1003.43 1003.55 1003.87 1004.03 1004.15 1004.31 1004.55 1004.75 1004.87 1005.43 1006.19 1006.59 1006.95 1007.43 1007.83 1008.03
994.63 994.47 994.35 994.19 993.95 993.71 993.79 993.95 993.83 993.59 993.55 993.63 993.43 993.11 992.95 993.23 993.75 994.07 994.43 994.63 994.75 994.07 993.63 994.07 994.47 994.91 995.47 995.99 996.27 996.51 996.83 997.19 997.47 997.83 998.31 998.71 999.19 999.75 999.95 999.95 1000.27 1000.75 1001.15 1001.63 1002.19 1002.67 1002.99 1003.11 1003.31 1003.47 1003.67 1003.79 1003.91 1004.03 1004.15 1004.35 1004.79 1005.63 1006.35 1006.63 1007.11 1007.47 1007.67
994.67 994.83 994.79 994.55 994.47 994.43 994.27 994.27 994.35 994.47 994.59 994.39 994.11 993.83 993.59 993.51 993.83 994.23 994.39 994.63 994.07 993.95 994.23 994.39 994.67 995.03 995.39 995.63 995.79 995.91 996.07 996.27 996.71 997.23 997.63 998.19 998.51 998.95 999.39 999.67 1000.07 1000.19 1000.47 1000.99 1001.51 1002.03 1002.47 1002.79 1002.99 1003.27 1003.43 1003.55 1003.55 1003.59 1003.83 1004.11 1004.59 1004.99 1005.83 1006.51 1006.75 1007.15 1007.47
994.87 994.83 994.87 994.83 994.83 994.95 994.75 994.75 994.71 994.67 994.71 994.63 994.55 994.43 994.23 994.03 994.23 994.23 994.27 994.31 994.35 994.31 994.27 994.47 994.75 995.03 995.43 995.67 995.79 995.95 996.11 996.31 996.55 996.87 997.27 997.63 998.11 998.59 999.03 999.31 999.39 999.71 1000.11 1000.35 1000.75 1001.23 1001.63 1001.87 1002.19 1002.63 1002.99 1003.19 1003.31 1003.47 1003.63 1003.91 1004.31 1004.99 1005.35 1005.99 1006.47 1006.83 1006.95
995.31 995.15 995.19 995.19 995.19 995.03 994.95 994.95 995.07 995.03 995.07 994.99 994.79 994.63 994.71 994.67 994.51 994.59 994.87 994.99 994.63 994.47 994.35 994.39 994.67 995.03 995.39 995.63 995.79 995.99 996.07 996.27 996.51 996.75 996.95 997.23 997.59 998.15 998.39 998.59 998.71 999.19 999.19 999.67 1000.15 1000.47 1000.79 1000.91 1001.19 1001.63 1001.87 1002.27 1002.67 1003.07 1003.39 1003.71 1004.07 1004.71 1005.15 1005.35 1005.87 1006.27 1006.63
995.19 995.35 995.51 995.59 995.63 995.31 995.11 994.95 995.07 995.23 995.39 995.39 995.23 995.19 995.15 995.15 995.19 995.43 995.59 995.31 995.07 994.79 994.67 994.55 994.63 994.87 994.99 995.15 995.35 995.55 995.75 996.15 996.23 996.31 996.39 996.55 996.71 996.91 997.07 997.55 998.07 998.31 998.35 998.63 998.87 999.15 999.51 999.75 1000.03 1000.35 1000.71 1001.27 1001.71 1002.31 1002.79 1003.15 1003.55 1004.07 1004.55 1005.11 1005.55 1005.99 1006.43
995.47 995.27 995.07 994.87 994.99 994.95 995.07 995.11 995.31 995.55 995.75 995.95 995.91 995.71 995.63 995.63 995.59 995.71 995.55 995.43 995.23 995.07 994.87 994.79 994.71 994.79 994.91 995.03 995.07 995.19 995.39 995.71 995.91 996.11 996.23 996.43 996.59 996.75 997.03 997.35 997.67 998.03 998.43 998.51 998.59 998.63 998.63 998.79 999.11 999.31 999.63 1000.19 1000.83 1001.67 1002.27 1002.63 1003.07 1003.51 1004.15 1004.79 1005.51 1006.19 1006.75
995.99 995.83 995.75 995.63 995.43 995.19 995.03 995.03 995.27 995.43 995.59 995.79 995.99 995.99 995.95 995.91 995.87 995.75 995.63 995.47 995.39 995.27 995.11 995.15 995.23 995.27 995.23 995.27 995.27 995.39 995.47 995.63 995.67 995.95 996.23 996.31 996.39 996.67 996.87 996.99 997.11 997.51 997.67 997.67 997.67 998.11 998.51 998.55 998.63 998.71 998.71 999.03 999.71 1000.79 1001.79 1002.47 1002.67 1002.91 1003.43 1004.23 1004.99 1005.99 1006.51
996.27 996.31 996.35 996.35 996.31 996.15 996.27 996.15 995.91 995.75 995.55 995.79 995.91 995.91 995.95 995.99 995.95 995.83 995.75 995.67 995.47 995.27 995.23 995.35 995.39 995.43 995.51 995.43 995.39 995.51 995.47 995.55 995.63 995.71 995.79 995.91 995.95 995.83 995.71 996.03 996.35 996.47 996.35 995.87 995.75 995.95 996.39 997.03 997.51 997.59 997.55 997.91 998.71 999.91 1001.19 1001.99 1002.55 1002.67 1002.43 1002.67 1003.11 1003.99 1005.27
996.39 996.43 996.51 996.51 996.47 996.43 996.47 996.47 996.55 996.55 996.47 996.31 996.07 995.91 995.95 995.99 995.95 995.75 995.59 995.51 995.47 995.39 995.39 995.43 995.47 995.63 995.83 995.87 995.87 995.83 995.75 995.75 995.83 995.87 995.95 996.03 996.15 996.19 996.03 995.59 995.55 995.31 995.35 995.39 995.07 995.11 995.07 995.27 995.91 996.31 997.23 998.31 998.71 998.63 999.27 1000.55 1001.51 1002.23 1002.59 1002.47 1002.51 1002.91 1003.43
996.55 996.59 996.63 996.59 996.59 996.67 996.67 996.71 996.71 996.79 996.83 996.71 996.43 996.31 996.23 996.15 996.07 995.91 995.71 995.51 995.51 995.51 995.55 995.55 995.63 995.87 995.99 996.07 996.19 996.23 996.11 996.11 996.11 996.19 996.15 996.19 996.23 996.27 996.43 996.39 996.11 996.31 996.91 997.31 997.31 996.59 995.91 995.95 996.07 996.31 996.63 996.91 997.95 998.39 997.87 998.59 1000.11 1001.71 1002.59 1002.83 1003.07 1003.39 1003.95
996.55 996.63 996.63 996.67 996.79 996.91 996.95 996.95 996.91 996.91 996.99 996.83 996.71 996.63 996.51 996.39 996.23 996.11 995.87 995.63 995.55 995.59 995.75 995.87 995.95 996.19 996.47 996.55 996.51 996.39 996.31 996.43 996.51 996.55 996.63 996.83 996.95 997.15 997.47 997.79 998.03 997.63 997.27 997.63 997.79 997.59 997.27 997.03 996.75 996.47 996.39 996.43 996.51 996.79 997.75 998.59 999.19 1000.35 1001.91 1002.87 1003.11 1002.95 1003.47
Wind_Speed
21 19 18 18 17 18 19 19 18 17 18 17 17 18 18 16 16 15 15 16 19 18 17 18 18 16 18 16 16 15 15 14 12 13 12 12 11 11 11 10 10 10 9 9 9 10 9 7 9 10 9 9 9 8 7 7 7 6 7 7 6 6 7
14 17 19 18 18 19 19 19 17 17 16 17 17 18 17 18 16 16 17 18 19 20 19 19 18 17 18 17 15 16 16 15 14 12 11 10 10 10 11 11 11 11 10 10 9 8 7 9 9 9 10 9 9 7 7 7 8 8 7 7 7 6 6
15 17 18 18 19 19 21 18 17 18 18 17 17 16 17 18 18 20 18 17 19 19 17 18 19 19 17 17 16 17 16 15 14 14 14 13 14 14 12 11 11 11 11 10 8 8 8 8 8 8 10 9 9 8 8 8 8 8 7 7 7 7 7
14 17 19 22 22 21 20 20 21 20 19 19 19 20 20 20 19 18 17 18 19 18 18 18 18 18 17 17 17 16 16 16 16 15 15 14 13 12 11 11 10 10 9 10 10 8 7 9 8 8 9 8 8 7 7 9 7 8 8 7 7 7 7
14 15 14 15 17 16 16 18 19 19 20 20 20 20 20 20 19 16 16 17 18 19 20 20 17 17 15 16 14 14 16 17 16 14 14 13 13 11 12 13 12 12 12 11 9 8 8 9 8 8 9 9 8 8 8 8 8 8 8 8 7 7 6
15 14 15 17 18 18 19 20 22 22 22 21 20 18 18 18 16 17 18 17 17 17 16 15 15 15 16 17 15 14 14 14 14 14 14 14 13 12 13 14 13 13 12 11 10 10 10 9 9 9 9 7 8 8 7 8 8 8 8 8 8 7 7
15 15 15 17 18 18 20 20 20 21 20 20 19 18 17 16 18 19 17 18 19 19 19 18 18 17 17 15 15 15 16 15 15 15 13 14 14 13 13 13 12 12 11 10 10 10 10 10 11 11 11 10 10 10 10 10 9 8 8 8 9 8 8
15 13 16 17 18 18 19 19 19 19 19 17 16 16 16 15 16 16 16 18 18 18 17 19 18 17 16 15 15 17 16 16 15 14 14 15 14 14 13 13 12 11 10 11 11 11 12 12 10 10 11 10 11 10 10 10 11 9 9 9 9 9 6
13 14 15 16 16 15 16 16 18 19 20 19 19 18 18 17 17 17 19 19 17 18 20 20 20 18 15 15 15 17 16 15 14 15 15 16 14 14 14 12 11 10 11 11 10 10 11 12 11 11 11 11 11 11 11 11 11 10 10 10 11 10 8
11 10 11 12 10 11 13 14 14 13 15 16 16 15 17 17 17 17 17 18 17 20 21 19 17 16 16 16 16 16 15 15 15 16 16 15 15 17 14 12 11 10 11 11 10 11 10 11 12 11 11 12 11 11 11 11 11 11 10 11 11 11 11
10 11 11 9 9 10 10 10 12 15 16 16 16 16 16 17 17 17 17 17 18 20 20 18 16 16 17 17 17 16 16 17 16 16 17 17 14 15 13 12 11 10 12 11 11 11 10 10 10 11 12 12 13 12 12 13 13 12 10 10 10 11 11
9 9 10 10 9 8 12 15 15 14 14 14 15 16 16 16 17 17 17 19 19 19 17 18 16 17 16 16 17 17 18 17 16 18 18 17 16 16 14 12 13 12 10 11 12 11 11 12 11 12 13 13 13 13 13 13 13 13 12 11 10 11 10
8 10 12 13 13 13 11 10 14 16 16 16 16 16 16 16 17 17 16 18 18 17 17 17 16 16 17 17 18 17 18 18 18 17 17 16 16 14 14 14 12 12 12 11 12 11 10 11 12 12 13 13 13 13 13 13 12 12 12 12 11 11 11
5 6 7 6 6 8 13 16 16 16 16 16 16 16 16 16 17 18 18 18 17 17 16 14 16 16 16 16 16 17 19 18 18 16 16 15 14 15 15 15 14 14 13 12 13 12 13 12 13 12 12 13 13 13 12 12 12 12 12 12 12 11 11
8 9 8 6 8 10 13 14 14 16 16 17 17 16 17 16 15 14 14 14 14 15 17 17 16 17 18 17 18 19 19 17 15 14 14 15 15 15 15 15 14 13 12 13 13 12 13 13 13 13 13 13 13 12 11 12 12 11 12 12 12 11 10
8 7 8 11 12 12 13 15 15 15 16 16 17 17 17 16 15 16 17 17 16 17 17 15 17 17 17 18 19 18 16 15 14 14 14 14 15 15 15 14 13 13 14 14 14 13 13 12 13 14 15 14 13 12 11 12 10 13 18 16 12 12 10
8 10 11 10 9 11 12 14 13 12 12 14 16 18 18 18 18 18 18 17 17 18 17 17 17 17 17 19 19 17 15 14 14 14 15 16 15 14 14 14 13 14 14 14 14 14 13 13 15 15 14 14 13 13 12 12 11 17 18 19 18 13 11
10 11 11 10 10 10 11 12 12 13 15 17 18 18 17 17 16 16 17 17 17 17 15 16 16 18 19 19 16 15 16 16 15 15 16 15 16 15 15 14 14 15 15 14 14 13 13 15 16 15 14 13 12 12 13 13 15 18 19 19 20 17 12
11 10 10 10 8 10 12 14 15 15 16 16 17 17 18 19 17 18 18 17 18 14 15 17 18 18 17 16 15 16 16 15 16 17 16 16 16 14 14 15 15 15 15 16 15 13 16 17 16 15 14 14 15 15 13 12 16 18 20 20 20 20 16
10 10 9 8 8 10 12 11 11 14 17 18 18 20 20 17 19 20 19 18 14 14 16 17 17 16 17 15 16 16 16 16 16 17 17 16 15 15 15 15 17 16 15 14 13 15 15 15 16 15 15 15 15 13 13 15 15 19 20 20 21 21 18
10 12 12 10 8 10 11 12 12 11 11 12 14 12 10 11 13 10 8 9 14 16 16 17 17 17 16 16 16 15 14 16 16 17 15 15 15 15 16 17 16 16 14 14 15 16 16 16 16 15 15 16 14 13 14 13 17 19 21 21 22 21 19
12 8 10 11 9 8 8 11 13 14 15 14 12 11 12 14 12 12 13 13 15 15 15 16 16 17 15 15 15 16 16 16 16 15 14 15 15 16 17 16 17 17 15 13 13 13 13 13 14 15 15 14 14 15 15 12 18 20 21 22 21 22 13
7 9 9 9 7 9 5 4 5 7 4 2 6 9 11 10 10 12 12 13 15 15 16 15 16 16 16 17 16 17 16 16 17 16 16 16 16 17 17 17 16 15 13 14 14 13 14 15 14 14 14 15 15 16 15 13 16 21 22 22 23 17 12
4 4 5 7 5 4 4 5 5 3 3 4 6 10 8 10 12 12 13 14 13 13 14 15 16 16 15 16 16 17 17 17 16 16 17 17 18 19 18 17 14 15 14 15 14 14 14 13 13 14 14 15 16 17 16 15 15 22 22 23 23 20 14
2 3 4 5 5 4 3 3 4 4 5 7 9 6 8 11 13 14 13 13 14 15 16 17 18 16 16 17 16 16 15 15 16 16 16 17 18 17 17 17 16 14 13 13 13 14 13 12 13 13 13 15 16 17 18 14 14 21 22 23 23 20 13
4 6 6 4 5 3 2 1 3 4 4 5 5 5 5 7 9 11 12 14 14 14 16 16 16 14 15 15 13 13 14 14 16 16 17 18 17 15 15 13 11 13 14 13 12 12 12 12 13 14 13 12 14 11 15 15 11 18 22 23 24 24 15
3 4 6 9 9 7 8 9 7 6 6 4 1 4 6 8 9 10 10 9 11 15 16 13 10 11 12 11 11 13 14 14 16 18 17 16 15 14 13 13 14 14 14 14 11 11 11 14 12 12 14 13 13 13 15 14 12 14 22 23 23 24 19
6 7 7 8 10 10 9 10 10 10 11 9 9 2 5 6 8 8 7 9 13 17 15 12 13 12 12 12 14 14 14 15 14 14 13 12 12 13 14 14 13 13 14 12 12 13 14 13 12 13 13 12 12 13 13 13 16 12 19 22 23 23 23
12 11 10 10 12 11 10 11 12 12 10 9 8 8 4 3 7 6 6 9 13 6 2 4 6 8 9 11 13 14 15 15 16 14 12 13 14 15 15 12 13 14 14 14 14 14 15 14 13 12 12 11 11 11 11 11 11 18 16 20 22 23 22
10 10 10 10 9 7 8 10 10 10 10 9 10 9 7 5 2 5 7 8 1 2 2 4 5 5 7 8 9 9 10 11 12 12 11 14 14 14 14 14 15 14 13 14 14 14 14 14 13 13 13 13 11 10 9 9 8 12 19 18 22 21 24
10 10 9 10 9 7 8 10 10 10 11 10 10 11 10 8 4 1 2 5 5 1 3 5 5 7 7 8 8 9 8 8 10 12 12 13 14 15 15 16 15 15 15 14 14 14 15 15 14 14 14 13 12 11 9 9 9 9 14 22 22 22 22
11 8 7 7 8 7 6 7 9 11 12 11 11 9 9 9 9 9 6 7 6 4 3 3 6 7 9 9 9 10 10 11 12 13 15 16 15 16 16 16 15 15 14 15 16 16 17 16 16 16 15 14 12 12 11 12 10 11 11 12 15 16 19
11 12 13 14 11 9 9 9 9 10 10 11 9 8 8 8 8 6 5 6 6 7 5 3 5 7 7 8 9 9 10 13 11 11 12 13 12 12 12 11 12 13 12 13 14 15 16 15 15 16 15 15 13 12 12 12 11 11 10 10 10 8 9
9 10 10 9 11 12 12 13 11 9 9 8 7 6 6 6 7 7 6 6 6 6 6 5 3 4 5 5 5 6 8 9 12 12 10 11 12 12 11 11 12 13 14 16 16 16 15 15 16 16 16 16 14 13 12 11 11 12 12 11 10 9 9
8 8 7 9 8 9 9 8 10 10 10 9 7 6 6 7 6 5 7 6 6 6 5 5 3 2 2 2 3 5 5 6 7 8 10 10 11 12 13 14 14 15 16 18 17 18 19 18 17 16 15 13 14 15 12 10 11 11 13 19 21 20 15
9 9 9 8 7 9 9 9 8 8 8 8 8 8 8 8 7 6 6 5 5 5 6 4 4 5 5 4 3 2 1 1 1 1 3 5 6 8 9 7 9 12 16 17 21 24 23 19 17 17 12 10 10 14 16 15 11 13 18 22 25 25 25
10 9 9 8 9 8 8 7 8 8 8 6 6 8 8 8 8 8 8 7 7 6 6 4 5 4 3 3 3 3 2 2 2 2 2 2 1 3 6 8 9 11 15 20 23 17 20 17 13 16 19 19 16 16 27 25 23 22 17 18 19 20 19
11 10 10 9 10 9 9 10 10 9 8 7 7 7 8 8 9 9 8 7 7 6 6 6 5 5 4 4 3 4 4 4 4 3 4 5 6 6 6 7 9 11 12 16 18 20 11 11 17 22 24 26 25 21 18 22 27 27 23 21 22 23 24
Wind_Direction
201 199 202 206 206 206 207 207 204 202 204 204 202 200 198 197 198 194 197 196 198 199 196 195 195 195 198 200 201 201 201 200 197 200 199 201 199 194 195 197 200 205 203 202 206 205 207 188 193 198 198 198 195 190 185 184 180 179 180 183 178 184 195
202 202 204 203 206 209 209 208 205 204 203 203 204 201 199 198 196 196 199 197 198 199 195 195 195 198 198 200 200 200 200 201 199 200 199 201 198 199 198 196 198 203 204 207 204 204 189 194 192 193 197 197 199 187 185 184 184 181 181 178 180 188 186
202 203 204 201 205 206 206 204 204 205 204 203 202 200 200 200 196 198 197 196 198 201 197 196 198 198 198 200 199 201 201 199 199 198 198 200 200 199 198 198 199 200 203 203 200 198 192 187 189 190 193 195 197 189 189 184 184 184 184 178 183 187 189
203 203 204 204 206 205 202 200 201 203 204 202 200 199 200 202 199 198 196 197 198 198 197 199 198 199 199 200 202 202 202 202 200 199 200 201 201 197 195 201 203 202 196 199 200 194 189 187 186 189 190 191 192 189 184 190 183 186 183 178 191 193 197
211 210 207 206 211 207 204 203 204 204 205 205 203 200 200 201 196 195 196 198 198 199 201 199 197 199 200 200 201 201 201 200 200 201 201 202 201 194 197 200 201 200 201 197 189 188 186 185 186 186 192 194 192 188 190 189 191 188 185 180 194 191 196
213 205 202 206 207 204 203 203 202 202 203 203 202 202 203 199 194 195 197 196 199 203 203 201 200 199 201 201 201 202 201 203 202 200 200 200 198 197 200 201 200 201 200 196 188 192 189 188 188 187 190 188 188 186 186 189 193 187 186 186 200 193 190
218 207 206 208 207 203 203 204 203 204 205 205 203 202 199 193 192 196 194 195 197 197 198 200 202 199 203 198 202 200 200 200 199 201 202 203 202 202 202 202 202 201 200 192 194 186 186 189 191 191 193 191 192 191 191 193 195 194 190 193 200 201 199
217 210 211 211 209 203 203 203 202 204 204 204 201 201 197 195 196 195 193 198 198 198 199 201 201 201 201 197 198 200 200 199 198 199 200 202 202 205 203 202 201 198 192 197 197 188 188 191 191 192 191 192 196 195 194 194 198 194 192 195 200 203 194
223 217 214 213 210 205 202 202 201 199 200 199 198 198 196 193 194 194 195 196 196 197 202 200 202 200 197 197 198 200 199 196 197 197 199 202 204 206 204 202 200 193 195 195 195 194 193 190 189 190 191 196 196 195 196 196 199 199 196 199 199 202 201
226 225 228 223 211 206 202 203 200 198 202 203 201 198 195 194 196 196 196 195 194 200 203 201 201 196 196 199 201 198 196 198 198 196 199 202 205 206 204 200 198 193 197 195 193 194 196 191 189 189 191 197 197 197 197 198 201 201 199 200 198 201 204
224 224 226 219 207 204 194 193 194 201 202 200 199 197 195 195 195 195 196 193 197 204 201 200 197 195 197 198 199 196 198 200 197 199 201 204 203 204 200 200 197 195 197 192 197 195 192 194 190 190 193 198 199 198 199 201 201 202 200 199 199 202 204
225 222 223 213 206 186 187 196 199 199 200 200 198 196 195 196 196 196 195 196 199 201 195 199 194 197 197 196 197 198 200 200 199 201 201 201 203 203 199 197 199 198 195 194 198 195 196 195 193 194 197 201 201 200 201 200 201 202 200 195 197 202 203
215 213 215 209 203 199 193 194 199 199 198 198 195 195 195 195 196 197 196 199 199 199 197 196 193 195 196 196 198 200 202 201 202 200 198 198 199 198 197 198 196 194 195 192 196 194 196 199 199 200 201 204 202 203 201 200 201 201 200 199 199 198 199
278 265 251 233 211 194 192 200 201 198 196 194 195 195 197 197 196 195 195 198 197 196 195 194 194 195 197 196 199 202 204 204 202 199 198 196 196 197 198 197 197 197 194 189 194 197 200 198 201 203 204 206 205 205 200 199 201 201 201 200 198 196 199
228 227 237 230 220 205 202 203 201 200 195 195 192 192 195 196 197 198 200 201 196 194 197 192 191 194 196 196 200 204 204 202 199 198 196 195 196 198 198 197 197 194 192 193 196 199 200 200 200 203 207 209 206 203 199 200 204 202 198 198 198 196 194
267 243 223 221 218 209 207 208 204 202 196 193 190 192 192 194 195 196 196 196 193 195 198 187 194 195 196 199 203 205 202 198 196 195 194 195 197 198 197 196 194 193 195 197 197 197 196 197 201 205 208 206 205 202 201 205 207 204 196 194 194 192 193
248 250 241 228 224 216 212 212 207 201 198 198 194 193 191 193 196 196 197 196 193 196 193 187 194 194 196 202 203 200 196 195 197 193 195 197 197 196 195 195 193 196 198 198 196 195 193 196 203 207 208 207 203 202 204 208 209 199 190 194 191 189 190
240 243 247 240 223 215 214 214 207 196 197 198 199 196 194 194 195 192 197 195 196 196 187 190 194 196 200 203 198 194 195 196 193 194 198 195 197 194 194 194 195 198 198 197 197 195 193 200 206 207 206 207 204 205 207 210 209 190 189 190 190 189 190
230 237 242 247 232 215 214 210 205 200 200 200 198 197 199 194 189 192 196 193 198 184 182 192 196 199 202 200 194 195 196 193 193 197 196 196 195 192 191 195 198 199 197 199 197 193 198 204 204 206 205 205 207 210 207 212 203 189 187 188 189 191 190
255 248 254 256 238 220 219 215 210 206 202 198 199 199 199 192 192 197 195 193 179 178 189 191 196 198 201 196 196 197 194 192 194 197 198 193 190 191 193 196 200 200 199 198 195 199 204 206 206 206 205 207 209 208 209 214 198 188 186 186 188 191 192
261 259 254 254 248 230 217 211 212 211 208 208 204 201 190 196 204 197 181 174 181 189 189 193 194 196 197 196 197 194 193 194 197 199 195 192 191 192 196 198 200 200 199 197 198 200 204 205 206 207 206 207 207 207 211 215 191 185 184 185 188 191 192
255 262 263 254 248 247 223 212 208 205 208 205 193 186 188 196 189 180 186 183 187 189 192 193 194 198 194 195 194 194 195 194 196 196 193 192 193 195 198 199 200 200 198 199 203 205 206 209 209 209 209 207 206 209 213 212 185 183 183 186 188 186 190
264 268 263 268 245 246 245 253 244 240 247 199 183 179 192 184 173 183 180 183 191 190 194 193 197 197 194 196 194 195 194 194 194 193 192 192 194 198 200 200 201 201 197 202 203 201 204 208 207 209 208 206 205 208 213 213 185 182 182 185 185 178 195
284 292 291 277 277 257 246 239 211 191 186 191 194 195 181 168 176 176 182 190 187 186 192 196 202 199 195 197 195 195 193 193 191 192 193 193 197 199 200 200 200 200 196 201 200 204 206 203 207 210 209 208 209 209 210 214 186 182 182 183 181 182 192
345 1 357 354 351 330 261 216 199 186 157 168 195 200 181 176 174 177 186 187 188 191 195 200 202 194 194 199 198 196 193 191 192 195 196 198 202 199 199 199 200 199 194 203 204 208 204 202 209 211 211 213 213 206 209 212 190 183 181 182 182 187 194
33 26 23 359 1 334 309 295 115 118 147 158 161 144 175 176 175 186 187 190 190 194 203 208 205 196 197 198 192 189 190 192 193 197 197 201 200 198 202 198 196 199 202 207 208 206 203 205 211 211 212 210 214 207 209 208 187 184 182 184 185 188 190
66 56 34 20 13 16 48 43 58 61 49 25 353 142 159 163 177 191 195 191 194 206 209 204 191 192 202 194 189 191 194 194 197 199 201 199 196 196 196 193 197 196 198 203 202 207 208 209 209 212 217 214 212 213 210 209 188 182 185 185 186 189 187
90 65 48 41 32 39 54 57 53 43 28 17 1 356 157 160 180 192 183 193 207 211 206 195 192 191 186 185 191 194 194 197 200 201 200 195 191 193 199 199 195 195 198 198 197 203 211 210 209 212 214 213 211 213 211 203 188 169 190 186 187 187 192
49 48 35 33 38 36 52 58 53 49 41 23 20 16 349 175 174 181 190 208 222 208 165 182 188 193 195 196 197 195 195 196 193 193 193 193 196 197 198 193 196 198 194 193 195 201 206 209 210 213 214 212 212 211 208 199 186 174 177 190 187 188 194
52 51 49 46 51 51 62 73 66 57 45 40 38 32 30 31 197 194 197 225 21 152 155 155 172 177 187 198 205 203 203 200 199 194 192 194 194 197 198 195 197 195 195 197 197 199 203 205 206 207 212 212 208 202 197 190 173 172 178 183 189 190 193
51 51 49 49 39 41 59 70 74 72 55 38 32 36 34 31 43 351 309 349 343 291 181 166 159 169 186 194 197 200 201 192 193 196 197 198 195 198 201 202 195 195 197 194 199 201 203 204 200 203 207 207 200 192 184 171 166 150 184 182 187 190 191
48 60 80 89 56 32 43 59 66 58 55 40 33 34 35 34 40 43 2 339 344 337 320 195 176 183 192 192 192 195 189 191 198 199 202 201 200 203 202 199 197 201 199 196 199 200 202 203 199 202 203 202 198 189 177 170 166 174 172 180 184 186 188
39 32 25 24 17 30 47 54 52 48 52 53 35 33 35 42 44 38 8 2 349 344 329 268 207 204 201 201 202 200 196 201 203 206 208 206 208 209 208 205 203 205 204 204 206 207 208 205 202 203 200 196 190 180 175 172 170 167 164 167 166 164 161
52 41 31 30 21 21 25 26 27 27 30 39 25 30 37 39 36 23 18 15 12 360 357 345 288 242 235 224 215 206 204 209 210 206 205 206 206 207 207 207 206 207 207 204 204 203 208 211 208 203 198 194 183 174 170 172 174 170 161 156 143 135 150
60 62 54 48 40 44 46 32 26 15 13 12 11 22 26 31 34 29 31 17 7 11 25 19 347 346 339 300 207 218 218 221 218 213 212 208 209 213 209 201 202 208 214 213 206 203 203 205 208 208 204 193 175 165 162 160 171 184 169 162 163 157 162
67 64 60 60 64 61 60 55 49 37 26 5 359 8 16 17 17 18 27 26 23 23 43 33 45 54 44 34 46 43 53 64 71 323 258 232 230 231 237 259 255 230 214 217 218 218 216 203 202 198 175 161 169 164 157 159 175 169 171 169 163 163 162
71 64 58 54 59 55 55 52 49 51 41 20 4 14 16 14 11 12 15 20 27 30 35 49 70 71 61 55 51 49 61 56 53 34 51 60 81 164 228 252 272 294 329 348 337 281 236 223 199 152 158 162 159 164 153 157 155 157 165 156 149 143 137
71 67 67 57 55 52 46 41 39 41 38 30 28 27 20 16 11 10 14 25 32 39 47 48 65 66 53 48 50 52 59 62 61 53 49 29 28 30 24 10 351 335 341 3 358 329 262 188 162 166 167 165 162 165 168 163 150 149 150 156 155 151 144